Time,TemperatureF,DewpointF,PressureIn,WindDirection,WindDirectionDegrees,WindSpeedMPH,WindSpeedGustMPH,Humidity,HourlyPrecipIn,Conditions,Clouds,dailyrainin,SoftwareType,DateUTC
2013-01-06 00:02:00,33.0,32.0,30.02,SSW,205,0.0,5.0,96,0.00,,,0.00,weatherlink.com 1.10,2013-01-06 05:02:00,
2013-01-06 00:17:00,33.1,32.0,30.01,NW,306,0.0,2.0,96,0.00,,,0.00,weatherlink.com 1.10,2013-01-06 05:17:00,
2013-01-06 00:32:00,33.1,32.0,30.00,WSW,237,0.0,2.0,95,0.00,,,0.00,weatherlink.com 1.10,2013-01-06 05:32:00,
2013-01-06 00:47:00,33.2,32.0,29.99,ENE,62,0.0,2.0,96,0.00,,,0.00,weatherlink.com 1.10,2013-01-06 05:47:00,
2013-01-06 01:03:00,33.2,32.0,29.99,SW,215,0.0,3.0,96,0.00,,,0.00,weatherlink.com 1.10,2013-01-06 06:03:00,
2013-01-06 01:18:00,33.3,32.0,29.99,West,281,0.0,4.0,96,0.00,,,0.00,weatherlink.com 1.10,2013-01-06 06:18:00,
2013-01-06 01:33:00,33.3,32.0,29.98,NE,40,0.0,1.0,96,0.00,,,0.00,weatherlink.com 1.10,2013-01-06 06:33:00,
2013-01-06 01:48:00,33.3,32.0,29.97,ENE,71,0.0,5.0,96,0.00,,,0.00,weatherlink.com 1.10,2013-01-06 06:48:00,
2013-01-06 02:03:00,33.3,32.0,29.97,NNW,346,0.0,4.0,96,0.00,,,0.00,weatherlink.com 1.10,2013-01-06 07:03:00,
2013-01-06 02:18:00,33.3,32.0,29.96,WSW,252,0.0,2.0,96,0.00,,,0.00,weatherlink.com 1.10,2013-01-06 07:18:00,
2013-01-06 02:33:00,33.3,32.0,29.96,WNW,293,0.0,1.0,96,0.00,,,0.00,weatherlink.com 1.10,2013-01-06 07:33:00,
2013-01-06 02:48:00,33.4,32.0,29.97,WNW,286,1.0,4.0,96,0.00,,,0.00,weatherlink.com 1.10,2013-01-06 07:48:00,
2013-01-06 03:03:00,33.4,32.0,29.97,North,355,0.0,2.0,96,0.00,,,0.00,weatherlink.com 1.10,2013-01-06 08:03:00,
2013-01-06 03:18:00,33.4,32.0,29.96,WNW,282,0.0,2.0,96,0.00,,,0.00,weatherlink.com 1.10,2013-01-06 08:18:00,
2013-01-06 03:33:00,33.3,32.0,29.95,South,174,0.0,1.0,96,0.00,,,0.00,weatherlink.com 1.10,2013-01-06 08:33:00,
2013-01-06 03:48:00,33.4,32.0,29.95,East,92,0.0,2.0,96,0.00,,,0.00,weatherlink.com 1.10,2013-01-06 08:48:00,
2013-01-06 04:03:00,33.4,32.0,29.95,North,355,0.0,1.0,96,0.00,,,0.00,weatherlink.com 1.10,2013-01-06 09:03:00,
2013-01-06 04:18:00,33.5,33.0,29.94,West,275,0.0,2.0,96,0.00,,,0.00,weatherlink.com 1.10,2013-01-06 09:18:00,
2013-01-06 04:33:00,33.5,33.0,29.94,WSW,239,0.0,1.0,96,0.00,,,0.00,weatherlink.com 1.10,2013-01-06 09:33:00,
2013-01-06 04:48:00,33.5,33.0,29.93,North,360,0.0,1.0,96,0.00,,,0.00,weatherlink.com 1.10,2013-01-06 09:48:00,
2013-01-06 05:03:00,33.5,33.0,29.93,WNW,285,0.0,1.0,96,0.00,,,0.00,weatherlink.com 1.10,2013-01-06 10:03:00,
2013-01-06 05:18:00,33.6,33.0,29.92,NW,308,0.0,3.0,97,0.00,,,0.00,weatherlink.com 1.10,2013-01-06 10:18:00,
2013-01-06 05:33:00,33.6,33.0,29.91,North,355,0.0,1.0,97,0.00,,,0.00,weatherlink.com 1.10,2013-01-06 10:33:00,
2013-01-06 05:48:00,33.6,33.0,29.92,WNW,299,0.0,1.0,96,0.00,,,0.00,weatherlink.com 1.10,2013-01-06 10:48:00,
2013-01-06 06:03:00,33.7,33.0,29.91,West,270,1.0,2.0,96,0.00,,,0.00,weatherlink.com 1.10,2013-01-06 11:03:00,
2013-01-06 06:18:00,33.7,33.0,29.91,WNW,292,0.0,1.0,96,0.00,,,0.00,weatherlink.com 1.10,2013-01-06 11:18:00,
2013-01-06 06:33:00,33.7,33.0,29.91,SSE,155,0.0,1.0,96,0.00,,,0.00,weatherlink.com 1.10,2013-01-06 11:33:00,
2013-01-06 06:48:00,33.8,33.0,29.91,South,178,0.0,1.0,96,0.00,,,0.00,weatherlink.com 1.10,2013-01-06 11:48:00,
2013-01-06 07:03:00,33.8,33.0,29.91,NW,323,0.0,2.0,96,0.00,,,0.00,weatherlink.com 1.10,2013-01-06 12:03:00,
2013-01-06 07:18:00,33.7,33.0,29.91,NW,313,0.0,1.0,96,0.00,,,0.00,weatherlink.com 1.10,2013-01-06 12:18:00,
2013-01-06 07:33:00,33.7,33.0,29.91,NW,313,0.0,0.0,96,0.00,,,0.00,weatherlink.com 1.10,2013-01-06 12:33:00,
2013-01-06 07:48:00,33.7,33.0,29.92,WNW,294,0.0,1.0,96,0.00,,,0.00,weatherlink.com 1.10,2013-01-06 12:48:00,
2013-01-06 08:03:00,33.6,33.0,29.92,WSW,253,1.0,1.0,96,0.00,,,0.00,weatherlink.com 1.10,2013-01-06 13:03:00,
2013-01-06 08:18:00,33.6,33.0,29.93,WNW,295,0.0,1.0,96,0.00,,,0.00,weatherlink.com 1.10,2013-01-06 13:18:00,
2013-01-06 08:33:00,33.5,33.0,29.93,WNW,300,0.0,2.0,96,0.00,,,0.00,weatherlink.com 1.10,2013-01-06 13:33:00,
2013-01-06 08:48:00,33.4,32.0,29.93,West,267,0.0,1.0,96,0.00,,,0.00,weatherlink.com 1.10,2013-01-06 13:48:00,
2013-01-06 09:03:00,33.4,32.0,29.93,SW,233,0.0,1.0,96,0.00,,,0.00,weatherlink.com 1.10,2013-01-06 14:03:00,
2013-01-06 09:18:00,33.4,32.0,29.94,NW,309,0.0,1.0,96,0.00,,,0.00,weatherlink.com 1.10,2013-01-06 14:18:00,
2013-01-06 09:33:00,33.5,33.0,29.94,WNW,282,1.0,3.0,96,0.00,,,0.00,weatherlink.com 1.10,2013-01-06 14:33:00,
2013-01-06 09:48:00,33.5,33.0,29.95,WSW,254,3.0,3.0,96,0.00,,,0.00,weatherlink.com 1.10,2013-01-06 14:48:00,
2013-01-06 10:03:00,33.5,33.0,29.95,NW,325,0.0,4.0,96,0.00,,,0.00,weatherlink.com 1.10,2013-01-06 15:03:00,
2013-01-06 10:18:00,33.5,32.0,29.96,WSW,250,0.0,2.0,95,0.00,,,0.00,weatherlink.com 1.10,2013-01-06 15:18:00,
2013-01-06 10:33:00,33.3,32.0,29.97,WSW,257,0.0,2.0,95,0.00,,,0.00,weatherlink.com 1.10,2013-01-06 15:33:00,
2013-01-06 10:48:00,33.2,32.0,29.98,West,265,0.0,1.0,95,0.00,,,0.00,weatherlink.com 1.10,2013-01-06 15:48:00,
2013-01-06 11:18:00,32.5,30.0,30.00,WNW,298,1.0,8.0,91,0.00,,,0.00,weatherlink.com 1.10,2013-01-06 16:18:00,
2013-01-06 11:33:00,32.4,30.0,30.00,WSW,253,0.0,1.0,91,0.00,,,0.00,weatherlink.com 1.10,2013-01-06 16:33:00,
2013-01-06 11:48:00,32.4,30.0,30.00,West,261,0.0,1.0,92,0.00,,,0.00,weatherlink.com 1.10,2013-01-06 16:48:00,
2013-01-06 12:03:00,32.4,30.0,30.00,WNW,284,0.0,1.0,91,0.00,,,0.00,weatherlink.com 1.10,2013-01-06 17:03:00,
2013-01-06 12:18:00,32.4,30.0,30.00,South,180,0.0,2.0,90,0.00,,,0.00,weatherlink.com 1.10,2013-01-06 17:18:00,
2013-01-06 12:33:00,32.7,29.0,30.00,West,261,2.0,5.0,87,0.00,,,0.00,weatherlink.com 1.10,2013-01-06 17:33:00,
2013-01-06 12:48:00,32.6,30.0,30.00,SW,224,1.0,1.0,89,0.00,,,0.00,weatherlink.com 1.10,2013-01-06 17:48:00,
2013-01-06 13:03:00,32.4,29.0,30.01,NW,306,0.0,5.0,88,0.00,,,0.00,weatherlink.com 1.10,2013-01-06 18:03:00,
2013-01-06 13:18:00,32.4,29.0,30.01,NW,312,0.0,3.0,88,0.00,,,0.00,weatherlink.com 1.10,2013-01-06 18:18:00,
2013-01-06 13:33:00,32.5,29.0,30.01,WNW,287,0.0,2.0,88,0.00,,,0.00,weatherlink.com 1.10,2013-01-06 18:33:00,
2013-01-06 13:48:00,32.6,30.0,30.01,WNW,283,0.0,2.0,89,0.00,,,0.00,weatherlink.com 1.10,2013-01-06 18:48:00,
2013-01-06 14:03:00,33.2,30.0,30.02,WSW,256,0.0,2.0,88,0.00,,,0.00,weatherlink.com 1.10,2013-01-06 19:03:00,
2013-01-06 14:18:00,33.3,30.0,30.02,WSW,258,1.0,2.0,89,0.00,,,0.00,weatherlink.com 1.10,2013-01-06 19:18:00,
2013-01-06 14:33:00,33.3,30.0,30.03,SW,236,1.0,2.0,89,0.01,,,0.01,weatherlink.com 1.10,2013-01-06 19:33:00,
2013-01-06 14:49:00,33.3,30.0,30.04,West,277,0.0,3.0,89,0.01,,,0.01,weatherlink.com 1.10,2013-01-06 19:49:00,
2013-01-06 15:04:00,33.3,31.0,30.05,WSW,252,0.0,4.0,90,0.01,,,0.01,weatherlink.com 1.10,2013-01-06 20:04:00,
2013-01-06 15:19:00,33.3,30.0,30.06,WSW,248,0.0,2.0,89,0.01,,,0.01,weatherlink.com 1.10,2013-01-06 20:19:00,
2013-01-06 15:34:00,33.4,31.0,30.08,SW,222,0.0,1.0,90,0.00,,,0.01,weatherlink.com 1.10,2013-01-06 20:34:00,
2013-01-06 15:49:00,33.5,31.0,30.09,WSW,240,0.0,3.0,90,0.00,,,0.01,weatherlink.com 1.10,2013-01-06 20:49:00,
2013-01-06 16:04:00,33.6,31.0,30.10,SSW,197,0.0,2.0,90,0.00,,,0.01,weatherlink.com 1.10,2013-01-06 21:04:00,
2013-01-06 16:19:00,33.6,31.0,30.11,West,270,0.0,3.0,90,0.00,,,0.01,weatherlink.com 1.10,2013-01-06 21:19:00,
2013-01-06 16:34:00,33.6,31.0,30.12,South,177,0.0,1.0,89,0.00,,,0.01,weatherlink.com 1.10,2013-01-06 21:34:00,
2013-01-06 16:49:00,33.5,31.0,30.13,WNW,300,0.0,4.0,89,0.00,,,0.01,weatherlink.com 1.10,2013-01-06 21:49:00,
2013-01-06 17:04:00,33.4,31.0,30.15,SSW,207,0.0,2.0,89,0.00,,,0.01,weatherlink.com 1.10,2013-01-06 22:04:00,
2013-01-06 17:19:00,33.3,30.0,30.16,WSW,253,0.0,6.0,89,0.01,,,0.02,weatherlink.com 1.10,2013-01-06 22:19:00,
2013-01-06 17:34:00,33.1,30.0,30.17,NW,307,0.0,5.0,89,0.01,,,0.02,weatherlink.com 1.10,2013-01-06 22:34:00,
2013-01-06 17:49:00,33.0,30.0,30.18,SSW,212,0.0,1.0,90,0.01,,,0.02,weatherlink.com 1.10,2013-01-06 22:49:00,
2013-01-06 18:04:00,32.9,30.0,30.19,West,279,3.0,5.0,90,0.01,,,0.02,weatherlink.com 1.10,2013-01-06 23:04:00,
2013-01-06 18:19:00,32.8,31.0,30.20,SW,232,0.0,1.0,91,0.00,,,0.02,weatherlink.com 1.10,2013-01-06 23:19:00,
2013-01-06 18:35:00,32.6,31.0,30.22,SSW,196,0.0,0.0,92,0.00,,,0.02,weatherlink.com 1.10,2013-01-06 23:35:00,
2013-01-06 18:49:00,32.5,30.0,30.22,SSW,208,0.0,1.0,90,0.00,,,0.02,weatherlink.com 1.10,2013-01-06 23:49:00,
2013-01-06 19:04:00,32.4,30.0,30.23,SSE,161,0.0,1.0,90,0.00,,,0.02,weatherlink.com 1.10,2013-01-07 00:04:00,
2013-01-06 19:19:00,32.3,30.0,30.24,WSW,239,0.0,1.0,89,0.00,,,0.02,weatherlink.com 1.10,2013-01-07 00:19:00,
2013-01-06 19:34:00,32.3,29.0,30.25,WSW,250,0.0,4.0,88,0.00,,,0.02,weatherlink.com 1.10,2013-01-07 00:34:00,
2013-01-06 19:49:00,32.2,29.0,30.27,West,269,0.0,1.0,88,0.00,,,0.02,weatherlink.com 1.10,2013-01-07 00:49:00,
2013-01-06 20:04:00,32.1,29.0,30.27,SW,227,0.0,1.0,87,0.00,,,0.02,weatherlink.com 1.10,2013-01-07 01:04:00,
2013-01-06 20:19:00,32.0,29.0,30.28,SW,231,0.0,2.0,87,0.00,,,0.02,weatherlink.com 1.10,2013-01-07 01:19:00,
2013-01-06 20:34:00,32.0,29.0,30.27,SW,229,0.0,1.0,88,0.00,,,0.02,weatherlink.com 1.10,2013-01-07 01:34:00,
2013-01-06 20:49:00,31.8,28.0,30.28,SW,215,0.0,2.0,87,0.00,,,0.02,weatherlink.com 1.10,2013-01-07 01:49:00,
2013-01-06 21:04:00,31.6,28.0,30.29,SW,215,0.0,0.0,87,0.00,,,0.02,weatherlink.com 1.10,2013-01-07 02:04:00,
2013-01-06 21:20:00,31.4,28.0,30.30,West,270,0.0,2.0,87,0.00,,,0.02,weatherlink.com 1.10,2013-01-07 02:20:00,
2013-01-06 21:35:00,31.4,27.0,30.29,West,281,0.0,1.0,85,0.00,,,0.02,weatherlink.com 1.10,2013-01-07 02:35:00,
2013-01-06 21:50:00,31.3,28.0,30.30,WSW,258,0.0,0.0,86,0.00,,,0.02,weatherlink.com 1.10,2013-01-07 02:50:00,
2013-01-06 22:05:00,31.2,27.0,30.31,SW,223,0.0,1.0,85,0.00,,,0.02,weatherlink.com 1.10,2013-01-07 03:05:00,
2013-01-06 22:20:00,31.1,27.0,30.31,SW,223,0.0,0.0,86,0.00,,,0.02,weatherlink.com 1.10,2013-01-07 03:20:00,
2013-01-06 22:35:00,31.0,27.0,30.32,SSW,209,0.0,0.0,85,0.00,,,0.02,weatherlink.com 1.10,2013-01-07 03:35:00,
2013-01-06 22:50:00,30.9,27.0,30.31,SSW,209,0.0,0.0,84,0.00,,,0.02,weatherlink.com 1.10,2013-01-07 03:50:00,
2013-01-06 23:05:00,30.7,27.0,30.32,SSW,206,0.0,0.0,86,0.00,,,0.02,weatherlink.com 1.10,2013-01-07 04:05:00,
2013-01-06 23:20:00,30.5,27.0,30.33,SSW,206,0.0,0.0,87,0.00,,,0.02,weatherlink.com 1.10,2013-01-07 04:20:00,
2013-01-06 23:35:00,30.1,27.0,30.33,SSW,206,0.0,0.0,87,0.00,,,0.02,weatherlink.com 1.10,2013-01-07 04:35:00,
2013-01-06 23:50:00,29.6,27.0,30.33,SSW,206,0.0,0.0,88,0.00,,,0.02,weatherlink.com 1.10,2013-01-07 04:50:00,